Location: Runa
(38.1429°N, 80.8510°W)
Time: 23:31:08
(UTC+00:00)

ISS - Pass Details

Date: 22 April 2026
Orbit: 414 x 424 km, 51.6° (Epoch: 15 May)

Event Time Altitude Azimuth Distance (km) Brightness Sun altitude
Exits shadow 09:41:46 10° 288° (WNW) 1,483 -1.4 -11.2°
Maximum altitude 09:44:12 19° 335° (NNW) 1,077 -1.7 -10.8°
Drops below altitude 10° 09:46:41 10° 23° (NNE) 1,504 -0.2 -10.3°
Sets 09:49:14 0° 42° (NE) 2,374 1.4 -9.9°
